Location: Seattle
(47.6064°N, 122.3308°W)
Time: 04:54:04
(UTC-07:00)

ITUPSAT 1 - Pass Details

Date: 10 April 2023
Orbit: 697 x 710 km, 98.5° (Epoch: 29 May)

Event Time Altitude Azimuth Distance (km) Brightness Sun altitude
Rises 22:43:20 0° 11° (NNE) 3,117 ? -25.4°
Reaches altitude 10° 22:45:37 10° 9° (N) 2,191 ? -25.6°
Maximum altitude 22:50:23 67° 288° (WNW) 767 ? -26.1°
Enters shadow 22:51:06 57° 240° (WSW) 828 ? -26.2°
